Flag for Congo Weather past 2 weeks in Impfondo, Congo

Now
82 °F

Scattered clouds.


Feels Like: 89 °F
Forecast: 69 / 90 °F
Wind: 2 mph from North

Location: Bangui Airport

Current Time: Jul 26, 2014 at 6:20:51 PM

Latest Report: Jul 26, 2014 at 6:00 PM


Visibility: N/A

Pressure: 29.83 "Hg

Humidity: 79%

Dew point: 75 °F

Location of ImpfondoLocation

Historic Weather in Impfondo — Graph

°F

Impfondo temperature yesterday

Maximum temperature yesterday: 75 °F (at 10:00 AM)
Minimum temperature yesterday: 70 °F (at 2:00 AM)
Average temperature yesterday: 72 °F

Past Weeks' High & Low Weather Summary

 TemperatureHumidityPressure
High95 °F (Jul 14, 2:00 PM)100% (Jul 13, 11:00 PM)30.04 "Hg (Jul 13, 11:00 PM)
Low70 °F (Jul 25, 2:00 AM)49% (Jul 14, 3:00 PM)29.77 "Hg (Jul 14, 5:00 PM)
Average78 °F86%29.94 "Hg
* Reported Jul 12 1:00 PM — Jul 26 5:00 PM, Impfondo, Weather by CustomWeather, © 2014

Note: Actual official high and low records may vary slightly from our data, if they occured in-between our weather recording intervals... More about our weather records

Advertising

Impfondo weather history for previous 24 hours

 ConditionsComfort  
Time TempWeatherWind HumidityBarometerVisibility
5:00 PM
Jul 26
88 °FScattered clouds.2 mph62%29.83 "HgN/A
4:00 PM88 °FScattered clouds.3 mph59%29.83 "HgN/A
3:00 PM88 °FPartly sunny.5 mph59%29.83 "HgN/A
2:00 PM90 °FPartly sunny.5 mph55%29.86 "HgN/A
1:00 PM88 °FPartly sunny.7 mph59%29.89 "HgN/A
12:00 PM86 °FScattered clouds.8 mph66%29.89 "HgN/A
11:00 AM82 °FBroken clouds.7 mph74%29.95 "HgN/A
10:00 AM81 °FBroken clouds.8 mph74%29.95 "HgN/A
9:00 AM79 °FBroken clouds.5 mph84%29.98 "HgN/A
8:00 AM75 °FScattered clouds.2 mph94%29.98 "Hg4 mi
7:00 AM72 °FClear.No wind100%29.95 "Hg4 mi
6:00 AM70 °FClear.No wind100%29.95 "Hg4 mi
5:00 AM72 °FClear.No wind100%29.92 "Hg10 mi
4:00 AM72 °FClear.No wind100%29.92 "Hg10 mi
3:00 AM72 °FClear.1 mph94%29.95 "Hg10 mi
2:00 AM72 °FClear.No wind100%29.92 "Hg10 mi
1:00 AM72 °FClear.No wind100%29.95 "Hg10 mi
12:00 AM72 °FClear.No wind100%29.95 "Hg10 mi
11:00 PM
Jul 25
72 °FClear.2 mph100%29.98 "Hg10 mi
10:00 PM72 °FClear.2 mph100%29.98 "Hg10 mi
9:00 PM72 °FClear.No wind100%29.95 "Hg10 mi
8:00 PM72 °FClear.No wind100%29.95 "Hg10 mi
Weather by CustomWeather, © 2014

See weather overviewHow to use our weather pages